Location: PSU-Greenbush Astrophysical Observatory
(37.5140°N, 94.9880°W)
Time: 20:07:36
(UTC-06:00)

Altair - Pass Details

Date: 01 February 2020
Orbit: 1502 x 1682 km, 47.2° (Epoch: 19 February)

Event Time Altitude Azimuth Distance (km) Brightness Sun altitude
Rises 13:01:00 0° 301° (WNW) 4,936 10.0 35.0°
Reaches altitude 10° 13:04:11 10° 301° (WNW) 3,948 9.5 34.9°
Maximum altitude 13:14:22 80° 216° (SW) 1,691 8.5 34.6°
Drops below altitude 10° 13:24:19 10° 131° (SE) 3,865 10.0 34.1°
Sets 13:27:24 0° 131° (SE) 4,828 10.4 34.0°
